TimeCST,TemperatureF,Dew PointF,Humidity,Sea Level PressureIn,VisibilityMPH,Wind Direction,Wind SpeedMPH,Gust SpeedMPH,PrecipitationIn,Events,Conditions,WindDirDegrees,DateUTC
12:55 AM,36.3,26.1,66,30.17,10.0,North,6.9,-,N/A,,Overcast,360,2012-11-26 06:55:00
1:55 AM,35.8,25.0,65,30.18,10.0,NNE,10.4,-,N/A,,Mostly Cloudy,30,2012-11-26 07:55:00
2:55 AM,36.0,25.2,65,30.19,10.0,NNE,10.4,-,N/A,,Scattered Clouds,30,2012-11-26 08:55:00
3:55 AM,34.3,24.6,68,30.22,10.0,NE,8.1,-,N/A,,Scattered Clouds,40,2012-11-26 09:55:00
4:55 AM,33.6,23.7,67,30.24,10.0,NE,6.9,-,N/A,,Overcast,40,2012-11-26 10:55:00
5:55 AM,33.8,23.0,65,30.27,10.0,NNE,10.4,-,N/A,,Overcast,20,2012-11-26 11:55:00
6:55 AM,33.6,22.8,65,30.30,10.0,NNE,9.2,-,N/A,,Overcast,20,2012-11-26 12:55:00
7:55 AM,32.9,22.8,66,30.34,10.0,North,9.2,-,N/A,,Overcast,10,2012-11-26 13:55:00
8:37 AM,33.8,21.2,60,30.37,10.0,North,11.5,-,N/A,Snow,Light Snow,10,2012-11-26 14:37:00
8:55 AM,32.2,23.7,71,30.38,10.0,North,9.2,-,0.00,Snow,Light Snow,360,2012-11-26 14:55:00
9:34 AM,32.0,24.8,75,30.40,10.0,North,8.1,-,N/A,Snow,Light Snow,10,2012-11-26 15:34:00
9:54 AM,32.0,24.8,75,30.42,6.0,North,9.2,-,N/A,Snow,Light Snow,360,2012-11-26 15:54:00
9:55 AM,31.1,25.3,79,30.42,6.0,North,9.2,-,0.00,Snow,Light Snow,360,2012-11-26 15:55:00
9:58 AM,32.0,24.8,75,30.42,6.0,North,10.4,-,N/A,Snow,Light Snow,10,2012-11-26 15:58:00
10:24 AM,30.2,26.6,86,30.43,10.0,North,8.1,-,N/A,Snow,Light Snow,10,2012-11-26 16:24:00
10:35 AM,30.2,26.6,86,30.43,10.0,NNE,6.9,-,N/A,Snow,Light Snow,20,2012-11-26 16:35:00
10:37 AM,30.2,26.6,86,30.44,10.0,North,8.1,-,N/A,Snow,Light Snow,360,2012-11-26 16:37:00
10:47 AM,30.2,24.8,80,30.44,10.0,North,6.9,-,N/A,,Mostly Cloudy,10,2012-11-26 16:47:00
10:55 AM,30.4,25.7,83,30.44,10.0,North,6.9,-,0.00,Snow,Light Snow,10,2012-11-26 16:55:00
11:45 AM,30.2,26.6,86,30.45,10.0,North,10.4,-,N/A,Snow,Light Snow,350,2012-11-26 17:45:00
11:46 AM,30.2,26.6,86,30.45,10.0,North,9.2,-,N/A,Snow,Light Snow,350,2012-11-26 17:46:00
11:49 AM,30.2,26.6,86,30.45,10.0,North,10.4,-,N/A,Snow,Light Snow,360,2012-11-26 17:49:00
11:53 AM,30.2,24.8,80,30.45,10.0,North,11.5,-,N/A,Snow,Light Snow,350,2012-11-26 17:53:00
11:55 AM,30.9,25.3,80,30.45,10.0,North,10.4,-,0.00,Snow,Light Snow,350,2012-11-26 17:55:00
12:00 PM,30.2,24.8,80,30.45,10.0,NNW,11.5,-,N/A,Snow,Light Snow,340,2012-11-26 18:00:00
12:06 PM,30.2,24.8,80,30.45,10.0,NNW,11.5,-,N/A,Snow,Light Snow,330,2012-11-26 18:06:00
12:18 PM,30.2,23.0,75,30.44,10.0,North,13.8,-,N/A,,Overcast,350,2012-11-26 18:18:00
12:46 PM,30.2,19.4,64,30.44,10.0,North,16.1,19.6,N/A,,Mostly Cloudy,360,2012-11-26 18:46:00
12:55 PM,30.2,19.2,64,30.44,10.0,North,12.7,-,0.00,,Overcast,350,2012-11-26 18:55:00
1:55 PM,31.1,18.1,59,30.43,10.0,North,12.7,-,N/A,,Scattered Clouds,350,2012-11-26 19:55:00
2:55 PM,31.1,14.9,51,30.43,10.0,North,9.2,-,N/A,,Clear,350,2012-11-26 20:55:00
3:55 PM,29.8,13.8,51,30.45,10.0,North,9.2,-,N/A,,Clear,10,2012-11-26 21:55:00
4:55 PM,27.3,13.6,56,30.46,10.0,NNE,4.6,-,N/A,,Clear,20,2012-11-26 22:55:00
5:55 PM,25.0,13.8,63,30.46,10.0,North,6.9,-,N/A,,Clear,10,2012-11-26 23:55:00
6:55 PM,24.4,13.5,63,30.48,10.0,North,5.8,-,N/A,,Clear,350,2012-11-27 00:55:00
7:55 PM,23.0,13.1,66,30.48,10.0,North,5.8,-,N/A,,Clear,10,2012-11-27 01:55:00
8:55 PM,19.6,12.4,74,30.49,10.0,Calm,Calm,-,N/A,,Clear,0,2012-11-27 02:55:00
9:55 PM,16.0,11.1,81,30.50,10.0,Calm,Calm,-,N/A,,Clear,0,2012-11-27 03:55:00
10:55 PM,12.2,9.0,87,30.50,10.0,Calm,Calm,-,N/A,,Clear,0,2012-11-27 04:55:00
11:55 PM,11.1,8.2,88,30.49,10.0,Calm,Calm,-,N/A,,Clear,0,2012-11-27 05:55:00